SCP
0 0 0 0 0 0 0 0 0 0 0 0 0 0 0 0 0 0 0 0 0 0 0 0 0 0 0 0 0 0 0 0 0 0 0 0 0 0 0 0 0 0 0 0
0 0 0 0 0 0 0 0 0 0 0 0 0 0 0 0 0 0 0 0 0 0 0 0 0 0 0 0 0 0 0 0 0 0 0 0 0 0 0 0 0 0 0 0
0 0 0 0 0 0 0 0 0 0 0 0 0 0 0 0 0 0 0 0 0 0 0 0 0 0 0 0 0 0 0 0 0 0 0 0 0 0 0 0 0 0 0 0
0 0 0 0 0 0 0 0 0 0 0 0 0 0 0 0 0 0 0 0 0 0 0 0 0 0 0 0 0 0 0 0 0 0 0 0 0 0 0 0 0 0 0 0
0 0 0 0 0 0 0 0 0 0 0 0 0 0 0 0 0 0 0 0 0 0 0 0 0 0 0 0 0 0 0 0 0 0 0 0 0 0 0 0 0 0 0 0
0 0 0 0 0 0 0 0 0 0 0 0 0 0 0 0 0 0 0 0 0 0 0 0 0 0 0 0 0 0 0 0 0 0 0 0 0 0 0 0 0 0 0 0
0 0 0 0 0 0 0 0 0 0 0 0 0 0 0 0 0 0 0 0 0 0 0 0 0 0 0 0 0 0 0 0 0 0 0 0 0 0 0 0 0 0 0 0
0 0 0 0 0 0 0 0 0 0 0 0 0 0 0 0 0 0 0 0 0 0 0 0 0 0 0 0 0 0 0 0 0 0 0 0 0 0 0 0 0 0 0 0
0 0 0 0 0 0 0 0 0 0 0 0 0 0 0 0 0 0 0 0 0 0 0 0 0 0 0 0 0 0 0 0 0 0 0 0 0 0 0 0 0 0 0 0
0 0 0 0 0 0 0 0 0 0 0 0 0 0 0 0 0 0 0 0 0 0 0 0 0 0 0 0 0 0 0 0 0 0 0 0 0 0 0 0 0 0 0 0
0 0 0 0 0 0 0 0 0 0 0 0 0 0 0 0 0 0 0 0 0 0 0 0 0 0 0 0 0 0 0 0 0 0 0 0 0 0 0 0 0 0 0 0
0 0 0 0 0 0 0 0 0 0 0 0 0 0 0 0 0 0 0 0 0 0 0 0 0 0 0 0 0 0 0 0 0 0 0 0 0 0 0 0 0 0 0 0
0 0 0 0 0 0 0 0 0 0 0 0 0 0 0 0 0 0 0 0 0 0 0 0 0 0 0 0 0 0 0 0 0 0 0 0 0 0 0 0 0 0 0 0
0 0 0 0 0 0 0 0 0 0 0 0 0 0 0 0 0 0 0 0 0 0 0 0 0 0 0 0 0 0 0 0 0 0 0 0 0 0 0 0 0 0 0 0
0 0 0 0 0 0 0 0 0 0 0 0 0 0 0 0 0 0 0 0 0 0 0 0 0 0 0 0 0 0 0 0 0 0 0 0 0 0 0 0 0 0 0 0
0 0 0 0 0 0 0 0 0 0 0 0 0 0 0 0 0 0 0 0 0 0 0 0 0 0 0 0 0 0 0 0 0 0 0 0 0 0 0 0 0 0 0 0
0 0 0 0 0 0 0 0 0 0 0 0 0 0 0 0 0 0 0 0 0 0 0 0 0 0 0 0 0 0 0 0 0 0 0 0 0 0 0 0 0 0 0 0
0 0 0 0 0 0 0 0 0 0 0 0 0 0 0 0 0 0 0 0 0 0 0 0 0 0 0 0 0 0 0 0 0 0 0 0 0 0 0 0 0 0 0 0
0 0 0 0 0 0 0 0 0 0 0 0 0 0 0 0 0 0 0 0 0 0 0 0 0 0 0 0 0 0 0 0 0 0 0 0 0 0 0 0 0 0 0 0
0 0 0 0 0 0 0 0 0 0 0 0 0 0 0 0 0 0 0 0 0 0 0 0 0 0 0 0 0 0 0 0 0 0 0 0 0 0 0 0 0 0 0 0
0 0 0 0 0 0 0 0 0 0 0 0 0 0 0 0 0 0 0 0 0 0 0 0 0 0 0 0 0 0 0 0 0 0 0 0 0 0 0 0 0 0 0 0
0 0 0 0 0 0 0 0 0 0 0 0 0 0 0 0 0 0 0 0 0 0 0 0 0 0 0 0 0 0 0 0 0 0 0 0 0 0 0 0 0 0 0 0
0 0 0 0 0 0 0 0 0 0 0 0 0 0 0 0 0 0 0 0 0 0 0 0 0 0 0 0 0 0 0 0 0 0 0 0 0 0 0 0 0 0 0 0
0 0 0 0 0 0 0 0 0 0 0 0 0 0 0 0 0 0 0 0 0 0 0 0 0 0 0 0 0 0 0 0 0 0 0 0 0 0 0 0 0 0 0 0
0 0 0 0 0 0 0 0 0 0 0 0 0 0 0 0 0 0 0 0 0 0 0 0 0 0 0 0 0 0 0 0 0 0 0 0 0 0 0 0 0 0 0 0
0 0 0 0 0 0 0 0 0 0 0 0 0 0 0 0 0 0 0 0 0 0 0 0 0 0 0 0 0 0 0 0 0 0 0 0 0 0 0 0 0 0 0 0
0 0 0 0 0 0 0 0 0 0 0 0 0 0 0 0 0 0 0 0 0 0 0 0 0 0 0 0 0 0 0 0 0 0 0 0 0 0 0 0 0 0 0 0
Wind_Speed
7 4 3 5 6 5 7 6 5 5 4 4 5 5 6 8 7 7 7 7 8 8 8 8 9 9 9 11 11 12 12 13 12 13 13 13 13 14 14 13 14 12 12 13
6 2 2 6 8 7 7 6 7 6 2 6 4 5 6 7 7 6 6 7 8 8 9 9 9 10 10 10 10 10 11 11 12 12 13 13 13 13 13 12 11 11 12 13
5 2 5 8 4 9 5 5 4 2 2 4 4 5 5 7 6 5 6 6 7 8 8 9 9 9 10 10 11 11 11 11 11 10 12 12 13 12 11 10 10 10 11 12
4 6 6 3 3 1 5 3 3 2 4 5 4 6 9 7 5 5 5 5 6 6 7 7 7 8 8 10 11 12 11 10 10 10 11 11 10 10 10 9 9 8 9 11
1 4 10 2 2 2 3 3 4 4 5 5 5 4 5 5 5 4 4 4 5 5 6 7 8 8 9 11 11 10 9 10 10 10 10 11 10 10 9 8 8 8 9 11
2 3 8 3 5 3 3 4 5 6 5 5 3 1 2 3 4 4 4 4 5 6 6 7 8 9 10 12 10 10 11 12 11 11 10 10 10 10 9 8 9 10 10 10
5 6 11 3 6 5 3 5 7 7 6 5 4 3 5 5 4 3 4 4 5 6 6 7 8 9 10 10 10 11 11 12 11 10 10 9 9 8 9 9 9 10 10 10
5 6 12 7 8 7 5 6 7 7 7 6 7 8 6 5 3 3 4 5 6 6 7 7 8 8 9 9 10 10 11 11 11 10 10 10 8 8 8 8 9 9 9 9
8 9 3 7 6 4 7 8 7 6 7 7 7 7 6 4 3 3 4 5 5 6 8 8 8 7 8 9 10 11 12 11 11 11 8 8 8 7 7 7 7 8 8 9
6 5 6 7 6 6 7 8 9 8 8 7 7 7 6 4 3 3 3 4 5 6 7 9 8 8 7 8 9 11 11 10 10 9 9 8 7 7 7 7 7 7 8 8
7 2 5 6 7 7 9 11 11 9 7 7 8 7 5 4 3 2 3 4 5 5 7 8 8 8 8 8 9 10 10 9 9 9 8 8 8 8 10 6 10 7 5 6
8 7 8 8 11 11 12 11 11 10 8 7 7 7 6 4 3 1 3 4 5 6 7 7 8 8 8 8 9 10 9 9 7 7 7 7 6 7 15 17 19 17 15 12
3 5 5 9 12 11 10 10 9 9 9 9 7 6 6 4 2 1 3 4 4 6 7 7 7 8 8 8 10 9 9 8 7 8 7 8 8 8 8 11 17 17 17 16
8 8 7 6 8 11 10 10 9 9 8 7 7 6 5 4 2 2 2 3 5 6 5 6 7 7 8 8 10 9 8 10 9 5 6 6 6 6 6 7 7 6 10 16
7 5 8 8 12 12 12 12 11 9 8 7 7 6 5 4 3 2 4 4 4 4 4 5 7 8 8 8 10 9 7 6 5 5 5 5 5 5 5 6 6 6 5 8
8 8 11 13 14 14 13 13 11 10 9 8 7 6 5 4 2 4 4 2 3 4 5 6 6 8 9 8 9 7 6 14 12 6 5 5 5 5 5 5 5 5 5 5
15 12 12 15 15 15 14 11 11 11 10 9 8 7 6 4 4 4 1 2 3 5 5 4 6 9 8 7 7 5 5 8 14 8 5 5 5 5 5 5 5 5 5 8
14 12 15 18 17 15 13 10 10 11 10 9 9 8 7 6 4 2 1 3 4 5 3 3 6 7 7 7 6 4 5 5 5 5 5 6 6 5 5 5 6 7 6 8
10 10 11 13 13 13 13 11 11 10 10 10 10 9 7 5 3 2 2 3 4 4 3 5 10 7 7 8 10 4 5 6 6 6 6 11 9 7 6 6 7 7 7 8
10 10 12 12 11 11 12 11 11 11 10 10 9 8 6 5 4 3 3 4 4 3 4 6 5 5 6 7 10 4 5 6 6 7 7 7 8 9 8 9 9 8 8 8
12 12 13 13 12 11 12 13 13 12 11 10 10 9 7 6 5 4 3 3 3 3 4 6 3 4 5 7 9 4 5 5 6 6 8 8 9 9 10 10 10 10 9 9
12 12 13 13 13 11 10 10 11 12 11 10 8 8 7 6 5 4 5 4 2 4 3 2 2 6 8 8 4 5 5 5 5 6 7 8 8 9 10 11 10 11 11 10
11 12 13 13 13 12 10 9 10 12 12 12 11 10 8 6 5 5 4 4 3 4 2 2 4 8 9 4 4 4 5 5 5 6 7 7 8 9 9 11 11 11 11 11
12 12 12 11 11 12 12 10 9 8 8 8 8 9 8 5 4 4 2 3 4 4 2 3 5 6 6 3 3 4 4 5 5 5 6 7 7 8 9 10 10 11 11 13
12 12 13 14 13 11 10 10 9 7 8 6 7 7 5 4 4 4 4 4 5 4 2 3 4 4 3 2 3 3 4 4 5 5 5 7 8 8 9 9 10 11 11 11
11 12 11 11 10 10 10 10 9 9 9 8 8 7 6 5 4 3 3 4 6 5 3 2 2 2 2 2 3 3 4 5 5 5 6 7 8 9 9 10 13 11 11 11
9 9 8 7 7 9 10 10 11 11 11 10 9 8 8 7 6 6 6 5 4 4 4 3 3 2 2 2 3 3 3 4 4 4 5 6 7 8 9 11 10 11 11 12
Wind_Direction
288 270 218 252 262 248 221 230 251 283 4 71 84 55 54 66 53 30 16 9 2 351 343 341 340 337 340 335 331 331 328 324 322 322 321 320 321 322 323 324 325 323 323 320
286 193 229 257 239 239 248 243 255 287 339 101 74 56 57 69 48 25 12 3 353 346 341 338 333 334 333 326 327 325 317 314 316 319 322 324 324 326 326 323 321 322 320 318
287 282 276 275 235 193 201 203 220 244 123 90 51 40 67 78 53 27 15 357 345 341 337 328 328 330 325 326 323 315 309 309 313 317 322 325 327 325 323 321 321 320 318 317
298 331 273 250 15 86 177 199 190 140 99 94 73 68 89 78 59 33 13 350 338 332 323 319 323 324 324 321 313 309 311 316 321 322 322 323 322 321 321 319 319 315 318 321
310 292 276 192 174 147 165 248 168 155 126 98 64 92 86 60 61 48 17 352 332 325 321 325 329 332 326 315 311 316 326 331 328 325 325 326 328 328 328 325 322 322 324 325
193 248 261 244 136 102 99 244 138 130 125 105 69 353 152 97 66 44 15 352 340 333 330 331 331 325 316 315 324 335 336 332 327 327 328 329 334 334 333 332 335 334 333 330
219 238 265 147 135 129 168 231 143 130 124 120 133 147 129 107 78 44 15 356 354 340 335 331 319 314 314 323 335 334 333 329 328 330 330 335 337 336 336 340 340 338 338 339
203 231 256 150 150 191 194 125 127 121 120 122 120 116 113 103 85 48 14 2 356 341 329 321 314 315 323 332 331 334 332 332 332 333 338 348 342 340 341 344 344 343 345 351
202 219 171 160 176 147 130 134 125 123 127 129 128 125 120 115 90 52 23 3 348 334 324 321 316 324 332 330 337 337 335 335 335 336 342 345 345 344 344 346 348 354 356 356
273 247 176 167 124 137 134 126 122 126 128 131 131 131 135 131 97 53 17 353 341 335 326 317 318 331 330 333 340 336 335 337 339 341 345 346 349 349 349 348 352 2 358 355
250 201 131 168 154 142 118 117 120 124 125 131 131 139 143 134 102 52 358 341 332 319 309 312 325 331 334 343 342 336 334 338 341 344 343 347 352 353 356 353 6 11 353 352
228 196 175 187 161 140 138 141 141 135 131 131 137 142 140 127 112 50 321 312 313 314 317 320 327 329 337 346 342 337 339 343 344 345 347 348 347 351 1 5 9 13 14 16
141 113 119 135 140 136 143 144 142 140 141 139 137 134 132 137 157 238 283 303 317 315 311 319 331 330 337 342 340 338 335 340 344 347 346 351 354 354 352 356 6 8 8 9
120 108 113 133 144 142 135 134 127 124 129 132 131 132 140 151 176 246 296 304 299 302 316 335 331 329 333 336 338 334 330 340 349 333 336 341 347 349 349 349 348 349 355 359
161 143 149 140 132 130 134 136 136 140 140 139 140 144 154 163 189 253 278 280 303 320 339 332 326 326 329 336 338 331 331 330 335 330 331 333 335 338 339 341 339 334 332 343
152 127 138 145 146 147 152 154 156 161 159 155 155 164 167 167 207 255 262 310 343 323 315 314 320 321 329 335 333 329 328 340 349 339 328 327 327 328 328 327 325 323 324 320
150 160 164 166 164 168 171 168 166 166 162 164 168 161 159 180 229 240 252 10 314 286 284 311 314 312 324 327 323 321 319 326 340 337 322 319 319 319 317 316 315 317 314 320
179 176 172 170 169 169 167 160 158 160 163 162 152 155 172 193 207 198 298 309 301 293 279 325 301 308 321 320 323 320 317 315 317 317 321 324 329 321 315 311 311 313 310 314
168 161 160 160 162 162 160 159 156 153 151 153 160 172 184 184 169 190 253 280 285 290 296 305 318 331 319 323 340 324 321 319 321 322 325 334 337 323 319 317 314 310 307 308
159 153 148 147 147 150 153 149 145 150 157 160 161 164 171 180 180 201 235 249 241 245 280 288 308 313 315 322 341 329 324 324 326 330 334 336 334 332 329 327 323 317 313 306
153 148 146 149 149 150 154 154 156 161 163 164 167 172 177 178 179 191 218 248 219 222 278 311 333 306 311 334 345 332 326 329 332 335 339 338 336 334 333 334 333 332 328 320
155 152 152 153 153 155 156 156 156 156 158 164 165 163 165 175 188 205 225 225 238 278 289 298 298 312 334 349 338 326 329 335 336 337 338 337 335 334 334 335 336 337 336 333
159 158 159 161 160 153 147 152 156 161 167 171 172 175 179 185 184 191 216 204 207 260 275 254 297 324 344 356 331 328 331 335 334 335 335 333 333 333 332 332 335 335 335 335
161 160 157 148 137 143 157 163 157 161 167 169 174 175 174 176 192 206 200 191 212 245 246 259 298 327 349 345 327 328 328 325 323 328 332 332 331 331 330 331 333 333 333 334
158 151 148 150 157 166 163 150 145 150 158 167 173 179 183 178 180 177 171 191 221 236 244 258 283 320 337 316 319 321 320 318 327 337 334 331 330 331 329 330 331 331 333 334
157 162 165 170 166 160 157 161 168 173 176 180 184 185 187 187 184 171 175 197 216 227 227 234 254 284 291 302 309 313 314 319 330 331 325 328 327 327 328 328 327 330 332 332
144 150 153 158 162 159 163 171 176 180 183 184 183 181 181 180 180 186 191 198 203 209 213 217 221 234 255 277 292 301 306 309 316 320 323 325 323 324 325 323 324 329 333 333